• In Hungary
  • List of Countries
  • For 7 days
  • Water Temperature
  • Satellite Maps
  • Weather Map
  • News
  • Weather Widgets
  • user-avatar
    Login

    Hourly Weather Streamwood

    Today, 24 June, Sunday

    Time Temperature Precipitation Wind Pressure Humidity
    00:00 +20°C° 0 mm 2 mps 735 mmHg 79%
    01:00 +20°C° 0 mm 2 mps 736 mmHg 80%
    02:00 +19°C° 0 mm 2 mps 736 mmHg 81%
    03:00 +19°C° 0 mm 2 mps 736 mmHg 82%
    04:00 +19°C° 0 mm 2 mps 736 mmHg 82%
    05:00 +19°C° 0 mm 2 mps 737 mmHg 82%
    06:00 +19°C° 0 mm 2 mps 737 mmHg 81%
    07:00 +21°C° 0 mm 2 mps 738 mmHg 76%
    08:00 +24°C° 0 mm 2 mps 738 mmHg 70%
    09:00 +26°C° 0 mm 2 mps 739 mmHg 65%
    10:00 +27°C° 0 mm 2 mps 739 mmHg 61%
    11:00 +28°C° 0 mm 2 mps 740 mmHg 57%
    12:00 +29°C° 0 mm 2 mps 740 mmHg 53%
    13:00 +29°C° 0 mm 3 mps 740 mmHg 53%
    14:00 +29°C° 0 mm 3 mps 740 mmHg 53%
    15:00 +29°C° 0 mm 3 mps 740 mmHg 53%
    16:00 +28°C° 0 mm 3 mps 740 mmHg 57%
    17:00 +27°C° 0 mm 3 mps 740 mmHg 60%
    18:00 +26°C° 0 mm 3 mps 740 mmHg 64%
    19:00 +25°C° 0 mm 3 mps 741 mmHg 68%
    20:00 +22°C° 0 mm 3 mps 741 mmHg 71%
    21:00 +20°C° 0 mm 3 mps 741 mmHg 75%
    22:00 +20°C° 0 mm 3 mps 742 mmHg 76%
    23:00 +19°C° 0 mm 3 mps 742 mmHg 78%

    Tomorrow, 25 June, Monday

    Time Temperature Precipitation Wind Pressure Humidity
    00:00 +19°C° 0 mm 3 mps 742 mmHg 80%
    01:00 +19°C° 0 mm 3 mps 742 mmHg 80%
    02:00 +18°C° 0 mm 3 mps 743 mmHg 81%
    03:00 +18°C° 0 mm 3 mps 743 mmHg 81%
    04:00 +18°C° 0 mm 3 mps 743 mmHg 81%
    05:00 +18°C° 0 mm 4 mps 743 mmHg 81%
    06:00 +18°C° 0 mm 4 mps 743 mmHg 80%
    07:00 +20°C° 0 mm 4 mps 743 mmHg 76%
    08:00 +21°C° 0 mm 5 mps 744 mmHg 72%
    09:00 +22°C° 0 mm 5 mps 744 mmHg 67%
    10:00 +23°C° 0 mm 5 mps 744 mmHg 64%
    11:00 +25°C° 0 mm 5 mps 744 mmHg 61%
    12:00 +26°C° 0 mm 5 mps 744 mmHg 58%
    13:00 +26°C° 0 mm 5 mps 744 mmHg 60%
    14:00 +26°C° 0 mm 4 mps 743 mmHg 62%
    15:00 +26°C° 0 mm 4 mps 743 mmHg 65%
    16:00 +25°C° 0 mm 4 mps 743 mmHg 68%
    17:00 +23°C° 0 mm 4 mps 742 mmHg 71%
    18:00 +23°C° 0 mm 5 mps 742 mmHg 75%
    19:00 +23°C° 0 mm 5 mps 742 mmHg 76%
    20:00 +22°C° 0 mm 5 mps 742 mmHg 78%
    21:00 +22°C° 0 mm 5 mps 742 mmHg 79%
    22:00 +22°C° 0 mm 5 mps 742 mmHg 79%
    23:00 +22°C° 0 mm 6 mps 742 mmHg 79%

    Day after tomorrow, 26 June, Tuesday

    Time Temperature Precipitation Wind Pressure Humidity
    00:00 +22°C° 0 mm 6 mps 741 mmHg 80%
    01:00 +21°C° 0.5 mm 6 mps 741 mmHg 82%
    02:00 +21°C° 0.5 mm 6 mps 740 mmHg 84%
    03:00 +20°C° 0.5 mm 6 mps 740 mmHg 86%
    04:00 +20°C° 0.3 mm 6 mps 740 mmHg 86%
    05:00 +21°C° 0.3 mm 6 mps 740 mmHg 87%
    06:00 +21°C° 0.3 mm 6 mps 739 mmHg 88%
    07:00 +21°C° 2.4 mm 6 mps 739 mmHg 89%
    08:00 +22°C° 2.4 mm 6 mps 739 mmHg 89%
    09:00 +23°C° 2.4 mm 6 mps 739 mmHg 90%
    10:00 +24°C° 1.5 mm 6 mps 738 mmHg 88%
    11:00 +26°C° 1.5 mm 5 mps 738 mmHg 85%
    12:00 +28°C° 1.5 mm 5 mps 738 mmHg 83%
    13:00 +28°C° 2.7 mm 5 mps 737 mmHg 81%
    14:00 +28°C° 2.7 mm 4 mps 736 mmHg 80%
    15:00 +29°C° 2.7 mm 4 mps 736 mmHg 78%
    16:00 +28°C° 3.7 mm 4 mps 735 mmHg 79%
    17:00 +27°C° 3.7 mm 5 mps 735 mmHg 80%
    18:00 +26°C° 3.7 mm 5 mps 735 mmHg 81%
    19:00 +25°C° 0.3 mm 5 mps 734 mmHg 82%
    20:00 +24°C° 0.3 mm 6 mps 734 mmHg 83%
    21:00 +24°C° 0.3 mm 6 mps 734 mmHg 84%
    22:00 +23°C° 0 mm 6 mps 734 mmHg 85%
    23:00 +23°C° 0 mm 5 mps 733 mmHg 87%

    27 June, Wednesday

    Time Temperature Precipitation Wind Pressure Humidity
    00:00 +23°C° 0 mm 5 mps 733 mmHg 88%
    01:00 +23°C° 0 mm 5 mps 732 mmHg 89%
    02:00 +22°C° 0 mm 5 mps 732 mmHg 91%
    03:00 +22°C° 0 mm 5 mps 732 mmHg 92%
    04:00 +22°C° 0 mm 5 mps 732 mmHg 91%
    05:00 +22°C° 0 mm 5 mps 733 mmHg 91%
    06:00 +21°C° 0 mm 5 mps 733 mmHg 90%
    07:00 +22°C° 0 mm 5 mps 733 mmHg 89%
    08:00 +22°C° 0 mm 5 mps 734 mmHg 88%
    09:00 +22°C° 0 mm 5 mps 734 mmHg 86%
    10:00 +23°C° 0 mm 5 mps 734 mmHg 84%
    11:00 +23°C° 0 mm 4 mps 735 mmHg 81%
    12:00 +25°C° 0 mm 4 mps 735 mmHg 79%
    13:00 +26°C° 0 mm 4 mps 735 mmHg 77%
    14:00 +27°C° 0 mm 4 mps 735 mmHg 75%
    15:00 +28°C° 0 mm 4 mps 735 mmHg 72%
    16:00 +27°C° 0 mm 4 mps 735 mmHg 75%
    17:00 +27°C° 0 mm 3 mps 736 mmHg 77%
    18:00 +26°C° 0 mm 3 mps 736 mmHg 79%
    19:00 +25°C° 0 mm 3 mps 736 mmHg 82%
    20:00 +24°C° 0 mm 2 mps 736 mmHg 84%
    21:00 +23°C° 0 mm 2 mps 736 mmHg 87%
    22:00 +21°C° 0 mm 2 mps 737 mmHg 87%
    23:00 +21°C° 0 mm 2 mps 737 mmHg 88%

    28 June, Thursday

    Time Temperature Precipitation Wind Pressure Humidity
    00:00 +20°C° 0 mm 2 mps 737 mmHg 89%
    01:00 +20°C° 0 mm 2 mps 737 mmHg 90%
    02:00 +20°C° 0 mm 2 mps 737 mmHg 91%
    03:00 +19°C° 0 mm 2 mps 737 mmHg 92%
    04:00 +21°C° 0 mm 1 mps 737 mmHg 90%
    05:00 +21°C° 0 mm 1 mps 737 mmHg 89%
    06:00 +22°C° 0 mm 1 mps 738 mmHg 88%
    07:00 +24°C° 0 mm 1 mps 738 mmHg 82%
    08:00 +25°C° 0 mm 1 mps 738 mmHg 76%
    09:00 +27°C° 0 mm 1 mps 738 mmHg 70%
    10:00 +28°C° 0 mm 1 mps 738 mmHg 67%
    11:00 +30°C° 0 mm 2 mps 738 mmHg 64%
    12:00 +31°C° 0 mm 2 mps 738 mmHg 60%
    13:00 +31°C° 0 mm 2 mps 738 mmHg 62%
    14:00 +31°C° 0 mm 2 mps 738 mmHg 64%
    15:00 +31°C° 0 mm 2 mps 738 mmHg 67%
    16:00 +31°C° 0 mm 3 mps 738 mmHg 70%
    17:00 +30°C° 0 mm 3 mps 738 mmHg 73%
    18:00 +30°C° 0 mm 3 mps 738 mmHg 76%
    19:00 +29°C° 0.1 mm 3 mps 737 mmHg 78%
    20:00 +28°C° 0.1 mm 3 mps 737 mmHg 81%
    21:00 +28°C° 0.1 mm 2 mps 737 mmHg 84%
    22:00 +27°C° 0 mm 3 mps 737 mmHg 85%
    23:00 +27°C° 0 mm 3 mps 737 mmHg 87%

    29 June, Friday

    Time Temperature Precipitation Wind Pressure Humidity
    00:00 +27°C° 0 mm 4 mps 737 mmHg 89%
    01:00 +27°C° 0 mm 3 mps 737 mmHg 90%
    02:00 +27°C° 0 mm 3 mps 737 mmHg 92%
    03:00 +27°C° 0 mm 3 mps 736 mmHg 94%
    04:00 +27°C° 0 mm 3 mps 737 mmHg 93%
    05:00 +27°C° 0 mm 3 mps 738 mmHg 93%
    06:00 +28°C° 0 mm 2 mps 738 mmHg 92%
    07:00 +29°C° 0 mm 3 mps 738 mmHg 85%
    08:00 +31°C° 0 mm 3 mps 738 mmHg 78%
    09:00 +34°C° 0 mm 4 mps 738 mmHg 71%
    10:00 +35°C° 0 mm 4 mps 738 mmHg 66%
    11:00 +36°C° 0 mm 5 mps 738 mmHg 62%
    12:00 +37°C° 0 mm 5 mps 738 mmHg 58%
    13:00 +37°C° 0 mm 5 mps 738 mmHg 59%
    14:00 +37°C° 0 mm 5 mps 738 mmHg 59%
    15:00 +38°C° 0 mm 6 mps 738 mmHg 60%
    16:00 +37°C° 0 mm 5 mps 738 mmHg 64%
    17:00 +36°C° 0 mm 5 mps 738 mmHg 68%
    18:00 +35°C° 0 mm 4 mps 738 mmHg 72%
    19:00 +34°C° 0 mm 4 mps 738 mmHg 75%
    20:00 +32°C° 0 mm 4 mps 738 mmHg 79%
    21:00 +30°C° 0 mm 4 mps 739 mmHg 82%
    22:00 +30°C° 0 mm 4 mps 739 mmHg 83%
    23:00 +29°C° 0 mm 4 mps 739 mmHg 84%
    Show more